Location: Newark
(47.5500°N, 8.6167°E)
Time: 21:04:46
(UTC+00:00)

Envisat - Pass Details

Date: 01 February 2020
Orbit: 764 x 766 km, 98.1° (Epoch: 23 February)

Event Time Altitude Azimuth Distance (km) Brightness Sun altitude
Rises 05:10:58 0° 24° (NNE) 3,243 6.5 -17.3°
Reaches altitude 10° 05:13:41 10° 37° (NE) 2,311 5.9 -16.9°
Maximum altitude 05:17:51 25° 93° (E) 1,511 5.4 -16.2°
Drops below altitude 10° 05:21:59 10° 148° (SSE) 2,296 6.0 -15.5°
Sets 05:24:40 0° 161° (SSE) 3,217 6.6 -15.0°
